Weather in Khokhotuy

Russia / Zabaykalsky Krai     51°17′03″N   109°33′52″E
temp.,
°C
wind,
m/s
gust,
m/s
humid.,
%
clouds,
%
prec.,
mm/h
press.,
hPa
HPBL,
m
18 august, thu
thu1800:00+7sw00790 0.0 101010
03:00+5wnw008712 0.0 101110
06:00+6sse0184100 0.0 101010
09:00+10nw1165100 0.0 1008177
12:00+17wsw1137100 0.0 10061140
15:00+19w3328100 0.0 10042325
18:00+17nnw433831 0.0 10051255
21:00+12nnw1152100 0.0 100615
19 august, fri
fri1900:00+9w1165100 0.0 100713
03:00+10wsw2365100 0.0 1007112
06:00+8wsw2278100 0.0 100876
09:00+10w357162 0.0 1009820
12:00+15wnw57415 0.0 10081945
15:00+18nw582947 0.0 10062822
18:00+18nw572785 0.0 10062686
21:00+11nw1148100 0.0 100712
20 august, sat
sat2000:00+8ese115878 0.0 100910
03:00+8ne1157100 0.0 100811
06:00+5ese1169100 0.0 100810
09:00+10ne1251100 0.0 1007193
12:00+15ene1237100 0.0 10041002
15:00+16ssw3438100 0.2 10031678
18:00+11sw4778100 0.3 1005419
21:00+8sw268885 0.4 1007187
21 august, sun
sun2100:00+5sw229559 0.0 101034
03:00+4wsw239866 0.0 101148
06:00+6sw379383 0.0 1012364
09:00+8wsw488080 0.1 1012779
12:00+12wnw576096 0.3 10111605
15:00+13wnw5746100 0.6 10111996
18:00+11wnw365399 0.1 10121215
21:00+9wsw276893 0.1 1013308
22 august, mon
mon2200:00+4wsw22945 0.0 101520
03:00+3sw22975 0.0 101627
06:00+2sw22978 0.0 101735
09:00+7wsw237810 0.0 1017318
12:00+13w355592 0.2 10141559
15:00+14w4645100 0.5 10141610
18:00+15wnw354640 0.3 10141768
21:00+11w1160100 0.4 101614